METEOR 2-8 DEB

Satellite information

Favourite Embed

Satellite Type and Status

DEBRISIN ORBIT

Key statistics

Satellite METEOR 2-8 DEB at a glance.

Uptime

15810

Days in orbit

Revolutions

≈ 14.4

Per day

Orbit

LEO

Low Earth Orbit

Inclination

82.5

Latest

Satellite identification and parameters

Extended collection of information and parameters for METEOR 2-8 DEB.

Object identification

Identified? True

Debris? True

Object name: METEOR 2-8 DEB

International designator: 1982-025AK

Object number (NORAD): 36349

Object ID (CCSDS): 36349

Country: COMMONWEALTH OF INDEPENDENT STATES (CIS)

Current information (Y/N): Y

RCS size: SMALL

Orbital parameters

Period: 100.247 minutes

Inclination: 82.506 deg

SMA: 7148.364 km

Apoapsis: 780.172 km

Periapsis: 760.286 km

RAAN: 81.2245 deg

Eccentricy: 0.001391

Argument of periapsis: 177.2215 deg

Mean anomaly: 182.9054 deg

Mean motion: 14.36457454 rev/day

Mean motion (dot): 0.00004867 rev/day2

B* drag term: 0.0016529 1/REarth

Two-line elements (TLE)

Creation date: July 4, 2025, 6:46 a.m.

Reference frame: TEME

Reference center: EARTH

Epoch: July 1, 2025, 10:34 a.m. UTC

TLE line 0: 0 METEOR 2-8 DEB

TLE line 1: 1 36349U 82025AK 25182.44059944 .00004867 00000-0 16529-2 0 9999

TLE line 2: 2 36349 82.5060 81.2245 0013910 177.2215 182.9054 14.36457454160301

Live tracking on map

Real-time ground track for satellite METEOR 2-8 DEB.

In-orbit conjunctions

A list of the most updated potential collisions computed for object METEOR 2-8 DEB.

Target Orbit TCA Probability of collision Miss distance Type
SL-8 R/B LEO 2025-03-12 19:24:58 0.0001088043 299.0 (m) ROCKET BODY
CZ-6A DEB LEO 2024-11-27 01:53:34 0.0001609663 615.0 (m) DEBRIS
CZ-6A DEB LEO 2024-11-19 17:41:19 0.0001508498 978.0 (m) DEBRIS
CZ-6A DEB LEO 2024-09-22 09:53:34 0.0001689755 184.0 (m) DEBRIS

Associated space launch

Second generation soviet meteorological satellite

METEOR 2-8 DEB was lifted into orbit during the mission ‘Tsiklon-3 | Meteor-2 8’, on board a Tsiklon-3 space rocket.

The launch took place on March 25, 1982, 9:50 a.m. from 32/1.

For more information about the launch, click the button.

Launch to space Tsiklon-3 | Meteor-2 8
Tsiklon-3 | Meteor-2 8

Agency: N/A

Status: Launch Successful

Launch date: March 25, 1982, 9:50 a.m. UTC

Rocket: Tsiklon-3

Launch pad: 32/1

Location: Plesetsk Cosmodrome, Russian Federation

...

Latest news about this satellite

There are no fresh news available about this satellite. Check back as we update our databases every day.


Newsletter sign-up

Weekly statistics, charts and insights to help you stay on top of the space industry.